Location: Unspecified
(48.5670°N, 0.0000°E)
Time: 21:20:34
(UTC+00:00)

Vanguard 2 Rocket - Pass Details

Date: 27 August 2019
Orbit: 554 x 3326 km, 32.9° (Epoch: 13 October)

Event Time Altitude Azimuth Distance (km) Brightness Sun altitude
Rises 03:24:14 0° 244° (WSW) 4,853 - -16.3°
Reaches altitude 10° 03:27:10 10° 237° (WSW) 4,190 - -15.9°
Exits shadow 03:29:37 19° 229° (SW) 3,737 9.3 -15.6°
Maximum altitude 03:38:21 43° 171° (S) 3,292 9.5 -14.4°
Drops below altitude 10° 03:55:10 10° 110° (ESE) 6,174 11.7 -12.1°
Sets 04:00:38 0° 105° (ESE) 7,302 12.3 -11.3°
